sat.trackr.live / text

‹ back to catalog

STARLINK-35335

NORAD 66180 · 2025-243D

PAYLOAD ACTIVE UNKNOWN

§ Identity

Operator
Country
US
Launch date
2025-10-26
Launch site
AFETR
Launch vehicle
Mass (kg)
RCS (m²)

Purposes: comms

External: N2YO · Heavens-Above · Gunter

§ Orbital elements

Epoch: 2026-09-20T21:05:46.178016Z

Period
93.85 min
Inclination
53.1575°
Eccentricity
0.0001265
Mean motion
15.34409409 rev/d
Perigee alt
461.8 km
Apogee alt
463.5 km
Semi-major
6,840.8 km
B*
5.4721e-4
RAAN
56.1018°
Arg perigee
70.5415°
Mean anomaly
289.5724°
Rev number
5,057

§ Raw data

STARLINK-353351 66180U 25243D   26263.87900669  .00018163  00000+0  54721-3 0  99912 66180  53.1575  56.1018 0001265  70.5415 289.5724 15.34409409 50579

JSON: /api/v1/satellites/66180 · /tle

For live sub-satellite position, see the globe view (requires WebGL).

§ Visibility from observer

Set your observer location to see the next 7 days of passes ≥ 10°. The values pass through the URL so the page stays shareable.

No JS? Fill the form by hand. The geolocation button needs JavaScript.